SCP
0 0 0 0 0 0 0 0 0 0 0 0 0 0 0 0 0 0 0 0 0 0 0 0 0 0 0 0 0 0 0 0 0 0 0 0 0 0 0 0 0 0 0
0 0 0 0 0 0 0 0 0 0 0 0 0 0 0 0 0 0 0 0 0 0 0 0 0 0 0 0 0 0 0 0 0 0 0 0 0 0 0 0 0 0 0
0 0 0 0 0 0 0 0 0 0 0 0 0 0 0 0 0 0 0 0 0 0 0 0 0 0 0 0 0 0 0 0 0 0 0 0 0 0 0 0 0 0 0
0 0 0 0 0 0 0 0 0 0 0 0 0 0 0 0 0 0 0 0 0 0 0 0 0 0 0 0 0 0 0 0 0 0 0 0 0 0 0 0 0 0 0
0 0 0 0 0 0 0 0 0 0 0 0 0 0 0 0 0 0 0 0 0 0 0 0 0 0 0 0 0 0 0 0 0 0 0 0 0 0 0 0 0 0 0
0 0 0 0 0 0 0 0 0 0 0 0 0 0 0 0 0 0 0 0 0 0 0 0 0 0 0 0 0 0 0 0 0 0 0 0 0 0 0 0 0 0 0
0 0 0 0 0 0 0 0 0 0 0 0 0 0 0 0 0 0 0 0 0 0 0 0 0 0 0 0 0 0 0 0 0 0 0 0 0 0 0 0 0 0 0
0 0 0 0 0 0 0 0 0 0 0 0 0 0 0 0 0 0 0 0 0 0 0 0 0 0 0 0 0 0 0 0 0 0 0 0 0 0 0 0 0 0 0
0 0 0 0 0 0 0 0 0 0 0 0 0 0 0 0 0 0 0 0 0 0 0 0 0 0 0 0 0 0 0 0 0 0 0 0 0 0 0 0 0 0 0
0 0 0 0 0 0 0 0 0 0 0 0 0 0 0 0 0 0 0 0 0 0 0 0 0 0 0 0 0 0 0 0 0 0 0 0 0 0 0 0 0 0 0
0 0 0 0 0 0 0 0 0 0 0 0 0 0 0 0 0 0 0 0 0 0 0 0 0 0 0 0 0 0 0 0 0 0 0 0 0 0 0 0 0 0 0
0 0 0 0 0 0 0 0 0 0 0 0 0 0 0 0 0 0 0 0 0 0 0 0 0 0 0 0 0 0 0 0 0 0 0 0 0 0 0 0 0 0 0
0 0 0 0 0 0 0 0 0 0 0 0 0 0 0 0 0 0 0 0 0 0 0 0 0 0 0 0 0 0 0 0 0 0 0 0 0 0 0 0 0 0 0
0 0 0 0 0 0 0 0 0 0 0 0 0 0 0 0 0 0 0 0 0 0 0 0 0 0 0 0 0 0 0 0 0 0 0 0 0 0 0 0 0 0 0
0 0 0 0 0 0 0 0 0 0 0 0 0 0 0 0 0 0 0 0 0 0 0 0 0 0 0 0 0 0 0 0 0 0 0 0 0 0 0 0 0 0 0
0 0 0 0 0 0 0 0 0 0 0 0 0 0 0 0 0 0 0 0 0 0 0 0 0 0 0 0 0 0 0 0 0 0 0 0 0 0 0 0 0 0 0
0 0 0 0 0 0 0 0 0 0 0 0 0 0 0 0 0 0 0 0 0 0 0 0 0 0 0 0 0 0 0 0 0 0 0 0 0 0 0 0 0 0 0
0 0 0 0 0 0 0 0 0 0 0 0 0 0 0 0 0 0 0 0 0 0 0 0 0 0 0 0 0 0 0 0 0 -0 -0 0 0 0 0 0 0 0 0
0 0 0 0 0 0 0 0 0 0 0 0 0 0 0 0 0 0 0 0 0 0 0 0 0 0 0 0 0 0 0 0 -0 -0 -0 0 0 0 0 0 0 0 0
0 0 0 0 0 0 0 0 0 0 0 0 0 0 0 0 0 0 0 0 0 0 0 0 0 0 0 0 0 0 0 -0 -0 -0 -0 0 0 0 0 0 0 0 0
0 0 0 0 0 0 0 0 0 0 0 0 0 0 0 0 0 0 0 0 0 0 0 0 0 0 0 0 0 0 -0 -0 -0 -0 -0 -0 -0 0 0 0 0 0 0
0 0 0 0 0 0 0 0 0 0 0 0 0 0 0 0 0 0 0 0 0 0 0 0 0 0 0 0 0 -0 -0 -0 0 0 0 0 0 0 0 0 0 0 0
0 0 0 0 0 0 0 0 0 0 0 0 0 0 0 0 0 0 0 -0 0 0 0 0 0 0 0 0 0 0 0 0 0 0 0 0 0 0 0 0 0 0 0
0 0 0 0 0 0 0 0 0 0 0 0 0 0 0 0 0 0 0 0 0 0 0 0 0 0 0 0 0 0 0 0 0 0 0 0 0 0 0 0 0 0 0
0 0 0 0 0 0 0 0 0 0 0 0 0 0 0 0 0 0 0 0 0 0 0 0 0 0 0 0 0 0 0 0 0 0 0 0 0 0 0 0 0 0 0
0 0 0 0 0 0 0 0 0 0 0 0 0 0 0 0 0 0 0 0 0 0 0 0 0 0 0 0 0 0 0 0 0 0 0 0 0 0 0 0 0 0 0
Wind_Speed
7 7 7 7 7 7 7 8 7 7 7 7 6 6 5 5 4 3 2 1 1 2 2 3 3 3 3 3 3 3 3 3 3 1 1 2 2 1 1 1 2 3 4
6 6 6 7 7 8 8 8 8 8 7 7 7 7 7 6 5 4 3 2 2 1 2 2 3 3 3 3 3 4 3 3 3 3 1 1 2 2 2 1 1 3 3
6 7 7 8 8 8 9 8 9 9 9 8 8 8 8 7 7 6 5 4 3 2 1 2 3 3 3 2 3 3 3 3 3 3 2 1 1 1 1 1 1 1 3
5 6 7 7 7 8 8 8 9 9 9 9 9 8 8 8 9 8 6 4 4 3 3 3 2 2 2 3 3 3 3 3 3 3 2 2 1 1 2 2 1 1 2
6 6 6 7 7 7 7 8 8 8 9 8 9 9 8 7 9 9 7 5 4 4 4 4 4 5 4 3 3 3 4 3 3 3 2 2 2 2 2 2 3 3 3
6 6 6 6 7 7 7 7 7 8 8 7 8 8 9 8 12 13 9 5 4 4 4 4 4 5 6 6 7 6 5 3 3 3 2 3 2 2 2 2 3 3 2
5 5 6 6 6 7 7 7 7 7 7 7 7 7 7 10 15 15 13 5 4 5 5 4 4 5 6 4 7 8 7 6 3 3 4 3 3 2 3 3 3 3 4
5 5 6 6 6 6 6 6 6 5 5 5 6 7 6 11 16 15 13 5 5 6 6 5 5 5 5 5 5 7 7 7 5 4 5 4 4 2 3 4 5 5 5
5 5 6 6 5 6 6 5 4 4 4 5 5 6 7 9 15 16 12 4 4 5 6 7 6 5 8 7 5 6 6 5 8 11 10 8 9 8 5 4 4 5 4
5 5 5 4 5 5 5 5 4 3 3 3 4 5 6 7 13 16 13 4 5 4 5 6 9 8 7 6 4 5 6 4 4 5 5 5 5 6 7 4 3 5 4
4 4 4 4 4 4 4 4 4 4 4 3 4 4 5 7 10 14 13 5 4 4 4 4 5 8 7 6 5 4 4 3 3 4 4 4 5 4 5 5 4 4 4
2 2 3 3 4 4 3 4 4 4 4 4 4 4 4 5 8 10 12 10 7 5 4 3 4 7 7 7 5 5 6 5 3 4 5 4 4 4 4 5 6 6 5
2 1 0 2 2 3 4 4 4 5 4 4 4 4 4 5 7 12 10 9 8 4 3 4 5 5 5 5 7 8 6 4 4 4 4 4 3 3 4 4 6 7 8
3 1 0 2 3 3 3 3 4 4 5 5 5 5 4 4 6 7 6 5 5 4 3 3 4 6 4 4 5 5 4 4 4 4 4 3 3 3 3 3 3 4 5
4 3 2 3 2 2 3 3 3 3 3 2 3 4 4 4 5 8 5 4 4 4 3 1 2 3 3 4 4 3 3 4 4 3 3 3 3 3 3 2 3 4 4
1 2 2 2 2 1 2 3 2 2 3 3 3 3 3 3 5 7 9 9 9 8 4 3 3 3 3 3 3 3 3 3 3 3 3 3 3 3 2 2 3 4 4
3 1 2 1 1 1 1 2 3 2 1 1 0 2 2 2 4 6 7 9 9 6 3 3 3 3 3 3 3 3 2 2 2 3 3 2 3 3 2 2 3 3 3
3 1 2 2 2 1 1 1 1 3 3 3 4 4 3 1 3 5 6 5 2 2 3 3 3 2 2 2 2 2 2 2 2 2 2 2 2 2 2 2 3 3 3
4 2 3 2 2 2 2 2 2 2 2 3 4 3 6 4 4 6 5 1 1 2 2 2 2 2 2 2 2 2 2 2 2 2 2 2 2 2 2 3 3 3 2
2 2 2 2 3 3 3 3 3 2 2 2 3 4 3 3 3 3 2 1 0 1 2 2 2 1 1 1 1 1 1 1 1 1 2 1 1 2 2 3 3 2 1
4 5 7 3 3 4 3 3 3 3 3 2 3 4 6 2 2 3 3 2 1 1 2 2 2 1 1 0 0 1 0 1 1 1 2 1 1 1 1 1 1 2 2
4 4 5 5 4 4 4 3 3 3 3 3 3 4 6 3 3 3 3 4 3 2 2 2 2 3 2 1 1 1 1 1 1 1 1 2 2 1 1 1 1 1 2
3 3 4 5 5 5 4 3 3 3 4 4 4 5 5 4 4 4 4 4 4 4 3 3 2 3 3 3 2 1 1 1 2 2 1 1 1 1 1 2 2 1 2
5 5 5 4 4 4 4 5 5 5 4 4 4 4 6 6 5 5 5 4 5 5 5 4 4 5 6 4 3 2 1 1 2 1 1 0 1 1 1 1 2 2 2
6 5 5 5 4 4 4 4 5 5 4 4 4 4 4 5 5 5 5 5 6 6 6 6 5 5 7 8 6 5 5 5 4 2 1 0 2 2 1 2 2 2 2
6 5 5 4 4 4 4 4 4 4 4 4 4 4 4 4 4 5 5 5 5 6 6 6 7 8 8 7 8 10 11 10 8 5 1 1 2 3 3 2 3 3 3
Wind_Direction
15 16 21 20 21 21 21 16 14 16 21 27 32 38 43 46 49 56 48 76 136 153 169 173 179 179 179 179 175 177 177 172 181 182 152 160 163 155 172 218 174 168 174
16 17 23 24 24 24 22 18 18 23 23 25 29 36 39 41 45 49 40 44 76 119 149 145 156 153 162 169 173 178 177 175 164 164 152 150 162 174 186 205 183 168 155
21 19 25 28 25 24 22 20 22 26 26 28 31 33 32 31 31 29 29 32 43 50 85 122 135 138 148 156 157 156 155 148 130 135 144 153 157 169 159 174 143 116 138
30 27 28 31 29 27 24 22 24 25 28 28 32 34 31 31 25 16 15 26 46 46 53 82 101 122 141 151 146 146 144 137 133 137 145 151 155 168 147 150 143 113 113
38 34 29 32 31 27 28 27 28 27 30 30 33 33 30 31 21 13 2 15 42 50 50 68 82 89 96 111 124 138 143 141 145 147 146 144 157 145 162 160 141 111 79
43 39 32 33 31 27 27 28 32 31 28 29 34 33 33 27 15 17 9 5 34 53 50 57 85 83 86 91 107 112 123 137 143 141 148 152 154 139 133 134 133 126 101
40 43 38 35 33 27 26 27 31 32 26 28 29 30 32 23 16 14 6 4 47 51 50 50 60 68 67 78 93 92 82 76 97 134 135 139 133 130 128 119 117 111 110
35 42 47 39 31 24 26 30 27 28 29 28 28 28 29 25 19 13 4 22 59 60 52 45 57 60 53 59 88 82 70 51 51 76 90 83 83 87 107 121 120 104 94
38 41 47 42 30 20 23 28 24 21 27 31 27 29 30 25 20 17 10 25 54 65 63 52 48 52 48 56 86 95 88 77 72 80 87 91 83 71 78 96 108 118 112
43 42 48 49 42 25 15 16 19 19 25 40 38 38 38 33 27 26 21 28 40 51 61 61 49 46 47 53 81 101 99 96 102 98 89 90 80 67 68 92 121 126 123
53 43 37 38 60 46 11 9 21 19 18 34 48 51 50 39 31 32 32 34 28 44 50 50 39 39 47 51 68 88 106 112 102 98 92 79 68 59 54 58 70 104 112
79 57 56 49 41 47 23 17 18 11 13 23 35 42 47 44 34 24 30 38 35 48 47 42 36 38 50 59 60 63 78 80 80 78 78 74 69 59 56 62 65 68 75
122 90 95 109 89 53 28 27 25 16 14 19 22 30 39 38 24 17 17 28 34 49 60 55 46 46 59 60 52 57 68 76 84 88 84 77 76 77 69 65 61 63 58
169 183 181 69 75 72 48 36 45 27 15 12 14 15 24 40 21 6 358 10 24 41 50 53 45 49 60 62 53 53 60 77 91 94 96 88 73 69 73 85 91 85 72
193 182 164 115 83 93 99 62 62 82 69 32 10 8 18 21 5 0 4 4 0 6 352 40 48 44 47 51 54 53 58 67 77 85 94 96 91 84 73 69 86 93 96
235 151 139 143 149 171 149 131 62 100 128 94 59 36 67 45 2 3 2 0 1 2 24 60 58 55 53 55 60 58 54 62 74 85 89 97 105 109 102 82 86 100 110
271 166 151 151 165 218 193 169 169 174 200 255 230 68 66 15 0 354 353 347 339 353 48 64 64 60 56 57 64 69 65 59 69 81 88 88 94 100 100 95 93 98 106
259 161 160 181 215 247 234 223 183 172 184 197 216 218 212 261 316 326 333 335 344 36 61 69 69 62 57 59 65 76 75 64 64 75 78 80 85 94 100 103 96 98 117
237 192 181 202 206 232 232 230 223 214 193 166 157 190 221 231 270 295 322 329 61 83 79 71 70 71 66 64 56 63 84 83 78 84 83 76 74 89 96 104 105 97 100
230 176 172 214 241 232 220 223 225 220 216 183 165 164 180 203 218 217 219 252 78 115 117 115 94 71 71 72 54 22 96 110 102 103 107 93 73 79 103 119 137 154 151
217 190 189 210 245 256 238 225 219 210 214 196 166 156 165 202 224 177 177 180 180 170 159 147 145 144 122 94 257 267 251 148 137 130 136 128 111 104 107 119 132 129 124
222 201 186 203 222 237 240 238 232 221 217 201 171 168 178 200 240 219 190 181 179 175 166 164 179 171 165 185 240 260 243 188 158 151 145 141 140 163 159 145 138 135 138
225 241 220 208 212 219 220 236 249 240 230 219 191 171 180 204 219 219 203 184 173 174 174 175 193 183 179 192 200 211 270 231 161 131 133 155 176 197 190 186 180 174 175
212 227 233 232 225 218 212 216 229 230 224 221 213 194 187 196 204 206 199 184 175 178 178 181 199 206 194 183 187 195 197 97 73 85 82 232 220 218 193 179 191 206 173
206 219 223 223 229 227 222 224 230 234 224 215 214 211 204 196 196 198 191 183 179 184 189 187 193 207 209 193 188 182 161 150 126 73 33 327 267 248 223 208 205 210 194
202 214 220 219 223 230 231 231 235 238 235 223 214 210 208 204 201 197 190 184 183 188 192 193 197 198 204 207 202 185 175 175 173 172 170 294 272 240 213 223 232 220 211